Location: *
(38.4303°S, 157.0822°W)
Time: 15:20:11
(UTC+00:00)

NOSS 3-4 (A) - Pass Details

Date: 21 May 2024
Orbit: 801 x 1410 km, 63.4° (Epoch: 04 June)

Event Time Altitude Azimuth Distance (km) Brightness Sun altitude
Exits shadow 15:09:33 37° 311° (NW) 2,052 4.8 -27.0°
Maximum altitude 15:13:28 73° 235° (SW) 1,448 4.1 -26.2°
Drops below altitude 10° 15:21:45 10° 150° (SSE) 3,324 6.5 -24.6°
Sets 15:24:29 0° 148° (SSE) 4,226 7.1 -24.1°
